1491332400.87,26765,14.69,73874.5,-2.33,-3.23,-3.35,0,*55
1491332402.07,26766,14.69,73876.8,-2.31,-3.19,-3.31,0,*59
1491332403.3,26767,14.69,73872.5,-2.31,-3.31,-3.47,0,*53
1491332404.52,26768,14.69,73872.3,-2.31,-3.23,-3.43,0,*5B
1491332405.72,26769,14.69,73872.3,-2.31,-3.27,-3.39,0,*53
1491332406.92,26770,14.69,73870.8,-2.31,-3.11,-3.23,0,*55
1491332408.11,26771,14.69,73870.8,-2.31,-3.19,-3.31,0,*5F
1491332409.36,26772,14.69,73866.5,-2.33,-3.27,-3.47,0,*52
1491332410.56,26773,14.69,73868.3,-2.31,-3.23,-3.35,0,*50
1491332411.76,26774,14.69,73864.5,-2.31,-3.19,-3.35,0,*5E
1491332412.99,26775,14.69,73864.0,-2.33,-3.15,-3.35,0,*51
1491332414.21,26776,14.69,73864.3,-2.31,-3.31,-3.47,0,*53
1491332415.43,26777,14.69,73864.8,-2.31,-3.35,-3.47,0,*56
1491332416.66,26778,14.69,73866.5,-2.31,-3.35,-3.47,0,*59
1491332417.9,26779,14.69,73868.0,-2.31,-3.43,-3.43,0,*5D
1491332419.11,26780,14.69,73866.0,-2.31,-3.19,-3.35,0,*55
1491332420.3,26781,14.69,73868.5,-2.31,-3.19,-3.31,0,*50
1491332421.53,26782,14.69,73870.3,-2.33,-3.23,-3.27,0,*5F
1491332422.72,26783,14.69,73868.5,-2.31,-3.11,-3.23,0,*59
1491332423.92,26784,14.69,73868.5,-2.31,-3.11,-3.31,0,*5D
1491332425.15,26785,14.69,73870.3,-2.33,-3.23,-3.27,0,*58
1491332426.34,26786,14.69,73868.8,-2.31,-3.11,-3.23,0,*5C
1491332427.54,26787,14.69,73864.5,-2.31,-3.19,-3.35,0,*52
1491332428.77,26788,14.69,73862.8,-2.31,-3.31,-3.43,0,*56
1491332429.97,26789,14.69,73864.5,-2.31,-3.23,-3.35,0,*55
1491332431.19,26790,14.69,73862.8,-2.31,-3.31,-3.55,0,*58
1491332432.44,26791,14.69,73858.8,-2.33,-3.59,-3.75,0,*57
1491332433.69,26792,14.69,73862.5,-2.31,-3.43,-3.59,0,*53
1491332434.92,26793,14.69,73862.0,-2.31,-3.35,-3.47,0,*5C
1491332436.14,26794,14.69,73862.5,-2.31,-3.23,-3.43,0,*58
1491332437.37,26795,14.69,73860.3,-2.33,-3.27,-3.39,0,*52
1491332438.56,26796,14.69,73862.8,-2.31,-3.23,-3.35,0,*5B
1491332439.76,26797,14.69,73862.3,-2.31,-3.23,-3.35,0,*5A
1491332440.98,26798,14.69,73860.8,-2.31,-3.23,-3.43,0,*54
1491332442.2,26799,14.69,73860.8,-2.31,-3.23,-3.43,0,*55
1491332443.45,26800,14.69,73862.5,-2.33,-3.35,-3.51,0,*5C
1491332444.67,26801,14.69,73868.5,-2.31,-3.31,-3.47,0,*5C
1491332445.91,26802,14.69,73864.8,-2.31,-3.43,-3.55,0,*59
1491332447.14,26803,14.69,73870.8,-2.31,-3.31,-3.43,0,*5A
1491332448.39,26804,14.69,73870.8,-2.33,-3.39,-3.51,0,*54
1491332449.59,26805,14.69,73870.0,-2.31,-3.23,-3.35,0,*5E
1491332450.81,26806,14.69,73868.8,-2.33,-3.15,-3.35,0,*5A
1491332452.01,26807,14.69,73868.0,-2.31,-3.11,-3.31,0,*59
1491332453.23,26808,14.69,73868.0,-2.29,-3.19,-3.31,0,*57
1491332454.48,26809,14.63,73864.5,-2.33,-3.35,-3.47,0,*52
1491332455.71,26810,14.69,73870.0,-2.33,-3.27,-3.39,0,*50
1491332456.91,26811,14.69,73870.5,-2.31,-3.19,-3.35,0,*52
1491332458.11,26812,14.69,73866.3,-2.31,-3.11,-3.31,0,*5D
1491332459.32,26813,14.69,73864.0,-2.31,-3.23,-3.43,0,*58
1491332460.55,26814,14.69,73862.3,-2.31,-3.31,-3.47,0,*58
1491332461.79,26815,14.69,73868.5,-2.33,-3.35,-3.47,0,*5F
1491332463.02,26816,14.69,73864.8,-2.31,-3.35,-3.55,0,*5D
1491332464.26,26817,14.69,73866.3,-2.31,-3.47,-3.47,0,*5A
1491332465.53,26818,14.69,73868.5,-2.33,-3.47,-3.71,0,*52
1491332466.76,26819,14.69,73868.3,-2.31,-3.35,-3.47,0,*51
1491332468.0,26820,14.69,73870.3,-2.33,-3.27,-3.47,0,*5A
1491332469.23,26821,14.69,73868.8,-2.33,-3.27,-3.39,0,*52
1491332470.43,26822,14.69,73870.5,-2.31,-3.19,-3.31,0,*56
1491332471.65,26823,14.69,73870.3,-2.33,-3.23,-3.39,0,*54
1491332472.87,26824,14.69,73870.3,-2.33,-3.23,-3.35,0,*5F
1491332474.1,26825,14.69,73872.3,-2.33,-3.15,-3.35,0,*5B
1491332475.32,26826,14.69,73874.5,-2.33,-3.23,-3.27,0,*5E
1491332476.51,26827,14.69,73868.8,-2.31,-3.19,-3.23,0,*50
1491332477.71,26828,14.69,73870.8,-2.31,-3.19,-3.23,0,*5F
1491332478.9,26829,14.69,73868.5,-2.31,-3.19,-3.23,0,*5E
1491332480.1,26830,14.69,73868.8,-2.31,-3.11,-3.19,0,*57
1491332481.3,26831,14.69,73868.0,-2.31,-3.11,-3.23,0,*5F
1491332482.52,26832,14.69,73866.0,-2.33,-3.23,-3.39,0,*54
1491332483.72,26833,14.69,73868.0,-2.31,-3.19,-3.31,0,*56
1491332484.93,26834,14.69,73866.5,-2.29,-3.19,-3.31,0,*58
1491332486.13,26835,14.69,73864.0,-2.31,-3.23,-3.35,0,*5D
1491332487.36,26836,14.69,73862.5,-2.31,-3.31,-3.43,0,*5C
1491332488.56,26837,14.69,73864.0,-2.31,-3.23,-3.35,0,*5F
1491332489.75,26838,14.69,73862.8,-2.31,-3.23,-3.35,0,*50
1491332490.97,26839,14.69,73864.5,-2.31,-3.23,-3.43,0,*50
1491332492.18,26840,14.69,73864.5,-2.31,-3.11,-3.35,0,*5E
1491332493.39,26841,14.69,73866.5,-2.29,-3.19,-3.31,0,*5A
1491332494.6,26842,14.69,73866.5,-2.31,-3.19,-3.35,0,*54
1491332495.8,26843,14.69,73870.3,-2.31,-3.19,-3.35,0,*55
1491332497.0,26844,14.69,73866.5,-2.31,-3.19,-3.35,0,*52
1491332498.22,26845,14.69,73866.5,-2.33,-3.23,-3.39,0,*54
1491332499.42,26846,14.63,73868.0,-2.31,-3.19,-3.31,0,*54
1491332500.61,26847,14.69,73870.3,-2.31,-3.11,-3.23,0,*5E
1491332501.81,26848,14.69,73868.5,-2.31,-3.11,-3.23,0,*51
1491332503.0,26849,14.69,73870.5,-2.31,-3.11,-3.23,0,*50
1491332504.2,26850,14.69,73866.8,-2.31,-3.11,-3.11,0,*59
1491332505.4,26851,14.69,73872.0,-2.31,-3.11,-3.31,0,*5A
1491332506.62,26852,14.69,73866.8,-2.33,-3.23,-3.35,0,*5E
1491332507.82,26853,14.69,73874.0,-2.31,-3.19,-3.31,0,*50
1491332509.02,26854,14.69,73868.8,-2.31,-3.19,-3.31,0,*57
1491332510.22,26855,14.69,73868.8,-2.31,-3.19,-3.23,0,*55
1491332511.42,26856,14.69,73868.0,-2.31,-3.19,-3.35,0,*51
1491332512.61,26857,14.69,73870.8,-2.31,-3.23,-3.35,0,*59
1491332513.84,26858,14.69,73872.8,-2.33,-3.27,-3.39,0,*5C
1491332515.07,26859,14.69,73876.3,-2.33,-3.27,-3.39,0,*5D
1491332516.3,26860,14.69,73874.5,-2.33,-3.27,-3.39,0,*57
1491332517.52,26861,14.69,73870.0,-2.29,-3.23,-3.35,0,*55
1491332518.71,26862,14.69,73868.8,-2.31,-3.23,-3.35,0,*5F
1491332519.95,26863,14.69,73864.8,-2.33,-3.27,-3.27,0,*5B
1491332521.14,26864,14.69,73868.5,-2.31,-3.19,-3.23,0,*57
1491332522.34,26865,14.69,73868.8,-2.31,-3.19,-3.23,0,*56
1491332523.55,26866,14.69,73872.8,-2.29,-3.19,-3.31,0,*5F
1491332524.78,26867,14.69,73872.8,-2.33,-3.15,-3.35,0,*5D
1491332526.0,26868,14.69,73868.8,-2.33,-3.23,-3.35,0,*57
1491332527.23,26869,14.69,73870.5,-2.31,-3.31,-3.43,0,*56
1491332528.43,26870,14.69,73868.0,-2.31,-3.23,-3.35,0,*5C
1491332529.62,26871,14.69,73870.3,-2.31,-3.19,-3.23,0,*53
1491332530.82,26872,14.69,73868.8,-2.31,-3.23,-3.31,0,*5A
1491332532.02,26873,14.69,73866.8,-2.31,-3.15,-3.27,0,*59
1491332533.23,26874,14.69,73870.8,-2.31,-3.19,-3.39,0,*5D
1491332534.43,26875,14.69,73870.5,-2.31,-3.19,-3.35,0,*50
1491332535.62,26876,14.69,73870.8,-2.31,-3.11,-3.19,0,*55
1491332536.82,26877,14.69,73874.5,-2.31,-3.19,-3.31,0,*56
1491332538.02,26878,14.69,73876.8,-2.31,-3.11,-3.19,0,*5B
1491332539.22,26879,14.69,73876.5,-2.31,-3.11,-3.19,0,*5A
1491332540.41,26880,14.69,73874.3,-2.31,-3.11,-3.23,0,*55
1491332541.61,26881,14.69,73872.8,-2.31,-3.11,-3.23,0,*54
1491332542.8,26882,14.69,73872.0,-2.31,-3.11,-3.23,0,*57
1491332544.0,26883,14.69,73874.5,-2.31,-3.11,-3.19,0,*5F
1491332545.2,26884,14.69,73872.3,-2.31,-3.03,-3.11,0,*53
1491332546.4,26885,14.69,73874.0,-2.31,-3.19,-3.31,0,*5B
1491332547.62,26886,14.69,73876.0,-2.29,-3.11,-3.31,0,*59
1491332548.84,26887,14.69,73878.3,-2.29,-3.11,-3.23,0,*5B
1491332550.05,26888,14.69,73872.0,-2.29,-3.07,-3.23,0,*53
1491332551.27,26889,14.69,73874.8,-2.29,-3.03,-3.11,0,*57
1491332552.49,26890,14.69,73876.8,-2.29,-3.07,-3.19,0,*53
1491332553.71,26891,14.69,73876.3,-2.29,-3.07,-3.19,0,*52
1491332554.93,26892,14.69,73874.8,-2.29,-3.19,-3.31,0,*54
1491332556.15,26893,14.69,73876.3,-2.29,-3.19,-3.31,0,*55
1491332557.36,26894,14.69,73876.8,-2.29,-3.23,-3.31,0,*5B
1491332558.56,26895,14.69,73876.8,-2.31,-3.19,-3.23,0,*59
1491332559.77,26896,14.69,73872.5,-2.29,-3.11,-3.23,0,*5B
1491332560.99,26897,14.69,73874.8,-2.29,-3.11,-3.23,0,*5A
1491332562.19,26898,14.69,73874.8,-2.31,-3.11,-3.31,0,*5F
1491332563.39,26899,14.69,73874.0,-2.31,-3.11,-3.31,0,*5E
1491332564.58,26900,14.69,73874.5,-2.31,-3.11,-3.23,0,*5C
1491332565.78,26901,14.69,73872.3,-2.31,-3.11,-3.19,0,*54
1491332567.0,26902,14.69,73870.0,-2.33,-3.11,-3.23,0,*5C
1491332568.2,26903,14.69,73872.8,-2.31,-3.07,-3.11,0,*59
1491332569.4,26904,14.69,73870.8,-2.31,-3.07,-3.19,0,*56
1491332570.59,26905,14.69,73872.3,-2.31,-3.07,-3.19,0,*57
1491332571.79,26906,14.69,73874.3,-2.31,-3.11,-3.19,0,*53
1491332572.99,26907,14.69,73870.8,-2.31,-3.11,-3.19,0,*52
1491332574.19,26908,14.69,73870.3,-2.31,-3.11,-3.11,0,*55
1491332575.39,26909,14.69,73870.5,-2.31,-3.11,-3.19,0,*5C
1491332576.61,26910,14.69,73868.5,-2.29,-3.11,-3.31,0,*57
1491332577.81,26911,14.69,73870.8,-2.31,-3.19,-3.31,0,*57
1491332579.04,26912,14.69,73868.8,-2.33,-3.15,-3.35,0,*5E
1491332580.23,26913,14.69,73868.0,-2.31,-3.11,-3.19,0,*57
1491332581.43,26914,14.69,73870.5,-2.31,-3.11,-3.19,0,*50
1491332582.65,26915,14.69,73868.0,-2.29,-3.11,-3.31,0,*52
1491332583.87,26916,14.69,73864.3,-2.29,-3.19,-3.23,0,*5A
1491332585.08,26917,14.69,73866.0,-2.29,-3.11,-3.23,0,*53
1491332586.3,26918,14.69,73866.8,-2.29,-3.11,-3.23,0,*5C
1491332587.52,26919,14.69,73864.0,-2.29,-3.11,-3.31,0,*5E
1491332588.73,26920,14.69,73864.5,-2.29,-3.11,-3.23,0,*57
1491332589.95,26921,14.69,73862.8,-2.29,-3.19,-3.31,0,*5D
1491332591.17,26922,14.69,73864.0,-2.29,-3.07,-3.31,0,*51
1491332592.39,26923,14.69,73866.5,-2.29,-3.11,-3.31,0,*57
1491332593.59,26924,14.69,73866.0,-2.31,-3.19,-3.31,0,*51
1491332594.79,26925,14.69,73866.3,-2.31,-3.19,-3.31,0,*50
1491332595.99,26926,14.69,73870.0,-2.31,-3.11,-3.31,0,*5B
1491332597.19,26927,14.69,73870.8,-2.31,-3.19,-3.31,0,*52
1491332598.4,26928,14.69,73866.8,-2.29,-3.23,-3.35,0,*59
1491332599.65,26929,14.69,73868.8,-2.29,-3.31,-3.43,0,*5A
1491332600.9,26930,14.69,73870.3,-2.29,-3.31,-3.43,0,*52
1491332602.12,26931,14.69,73870.0,-2.29,-3.31,-3.35,0,*52
1491332603.34,26932,14.69,73868.5,-2.29,-3.19,-3.31,0,*5F
1491332604.56,26933,14.69,73868.5,-2.29,-3.11,-3.31,0,*56
1491332605.78,26934,14.69,73868.3,-2.29,-3.19,-3.31,0,*59
1491332606.98,26935,14.69,73872.8,-2.31,-3.23,-3.31,0,*58
1491332608.17,26936,14.69,73872.8,-2.31,-3.11,-3.31,0,*5A
1491332609.39,26937,14.69,73872.8,-2.29,-3.19,-3.23,0,*59
1491332610.61,26938,14.69,73874.0,-2.29,-3.11,-3.23,0,*5E
1491332611.82,26939,14.69,73872.3,-2.29,-3.11,-3.23,0,*5F
1491332613.02,26940,14.69,73874.0,-2.31,-3.11,-3.31,0,*5B
1491332614.24,26941,14.69,73870.0,-2.29,-3.19,-3.23,0,*58
1491332615.44,26942,14.69,73872.5,-2.31,-3.11,-3.31,0,*59
1491332616.65,26943,14.69,73874.5,-2.29,-3.11,-3.23,0,*52
1491332617.87,26944,14.69,73872.0,-2.29,-3.11,-3.19,0,*5C
1491332619.07,26945,14.69,73874.8,-2.27,-3.03,-3.07,0,*5F
1491332620.29,26946,14.69,73874.8,-2.29,-3.07,-3.11,0,*51
1491332621.51,26947,14.69,73874.8,-2.29,-3.07,-3.11,0,*50
1491332622.73,26948,14.69,73870.8,-2.29,-3.07,-3.19,0,*57
1491332623.95,26949,14.69,73870.3,-2.29,-3.03,-3.19,0,*52
1491332625.16,26950,14.69,73872.8,-2.29,-3.07,-3.19,0,*5E
1491332626.38,26951,14.69,73876.3,-2.29,-3.07,-3.11,0,*57
1491332627.61,26952,14.69,73872.0,-2.29,-3.07,-3.11,0,*54
1491332628.82,26953,14.69,73872.8,-2.29,-3.07,-3.15,0,*51
1491332630.05,26954,14.69,73868.3,-2.29,-3.11,-3.11,0,*55
1491332631.27,26955,14.69,73872.3,-2.29,-3.11,-3.11,0,*54
1491332632.49,26956,14.63,73870.3,-2.29,-3.07,-3.19,0,*58
1491332633.68,26957,14.69,73870.0,-2.27,-3.03,-3.15,0,*5F
1491332634.87,26958,14.69,73872.3,-2.27,-3.07,-3.19,0,*58
1491332636.09,26959,14.69,73876.5,-2.29,-3.07,-3.19,0,*57
1491332637.3,26960,14.69,73874.5,-2.27,-3.15,-3.27,0,*5D
1491332638.52,26961,14.69,73872.8,-2.29,-3.19,-3.35,0,*5D
1491332639.74,26962,14.69,73872.0,-2.29,-3.23,-3.35,0,*57
1491332640.96,26963,14.69,73872.3,-2.29,-3.31,-3.35,0,*55
1491332642.19,26964,14.69,73872.5,-2.27,-3.27,-3.43,0,*5A
1491332643.41,26965,14.69,73870.5,-2.29,-3.19,-3.35,0,*59
1491332644.63,26966,14.69,73874.3,-2.29,-3.19,-3.31,0,*5E
1491332645.83,26967,14.63,73868.8,-2.27,-3.07,-3.27,0,*59
1491332647.04,26968,14.69,73874.5,-2.29,-3.07,-3.23,0,*5C
1491332648.26,26969,14.63,73872.8,-2.29,-3.11,-3.19,0,*53
1491332649.45,26970,14.69,73874.3,-2.27,-3.07,-3.15,0,*5E
1491332650.67,26971,14.69,73876.0,-2.29,-3.19,-3.23,0,*5B
1491332651.89,26972,14.69,73874.3,-2.29,-3.11,-3.31,0,*53
1491332653.11,26973,14.63,73872.3,-2.29,-3.19,-3.31,0,*5A
1491332654.32,26974,14.69,73872.8,-2.29,-3.11,-3.23,0,*56
1491332655.52,26975,14.69,73874.0,-2.27,-3.07,-3.15,0,*5B
1491332656.71,26976,14.69,73872.0,-2.27,-3.07,-3.15,0,*58
1491332657.93,26977,14.69,73872.8,-2.29,-3.19,-3.19,0,*54
1491332659.15,26978,14.63,73868.0,-2.29,-3.07,-3.19,0,*54
1491332660.37,26979,14.69,73874.0,-2.29,-3.07,-3.19,0,*55
1491332661.56,26980,14.63,73872.8,-2.27,-3.03,-3.19,0,*59
1491332662.76,26981,14.69,73874.5,-2.27,-3.15,-3.27,0,*52
1491332663.98,26982,14.69,73878.0,-2.29,-3.23,-3.31,0,*5D
1491332665.18,26983,14.63,73870.0,-2.27,-3.15,-3.19,0,*5D
1491332666.39,26984,14.63,73868.0,-2.29,-3.11,-3.23,0,*59
1491332667.61,26985,14.69,73876.8,-2.29,-3.11,-3.23,0,*58
1491332668.82,26986,14.69,73876.8,-2.29,-3.19,-3.23,0,*53
1491332670.04,26987,14.69,73876.5,-2.29,-3.11,-3.19,0,*53
1491332671.27,26988,14.69,73882.5,-2.29,-3.11,-3.11,0,*54
1491332672.46,26989,14.69,73884.8,-2.27,-3.07,-3.19,0,*54
1491332673.68,26990,14.69,73886.5,-2.29,-3.11,-3.19,0,*55
1491332674.9,26991,14.69,73884.0,-2.29,-3.07,-3.11,0,*5B
1491332676.12,26992,14.69,73878.5,-2.29,-3.23,-3.35,0,*58
1491332677.34,26993,14.69,73878.8,-2.29,-3.19,-3.35,0,*50
1491332678.54,26994,14.69,73876.0,-2.27,-3.15,-3.27,0,*56
1491332679.75,26995,14.63,73874.5,-2.27,-3.15,-3.27,0,*57
1491332680.97,26996,14.63,73876.3,-2.29,-3.19,-3.31,0,*51
1491332682.19,26997,14.69,73876.8,-2.29,-3.19,-3.31,0,*50
1491332683.41,26998,14.69,73874.5,-2.29,-3.23,-3.35,0,*52
1491332684.62,26999,14.69,73874.8,-2.29,-3.11,-3.23,0,*55
1491332685.84,27000,14.69,73878.3,-2.29,-3.11,-3.31,0,*5E
1491332687.06,27001,14.69,73878.3,-2.29,-3.07,-3.23,0,*5B
1491332688.26,27002,14.69,73878.5,-2.27,-3.15,-3.27,0,*51
1491332689.48,27003,14.69,73874.5,-2.29,-3.19,-3.31,0,*55
1491332690.7,27004,14.69,73880.3,-2.29,-3.11,-3.31,0,*5A
1491332691.91,27005,14.63,73878.8,-2.29,-3.11,-3.23,0,*58
1491332693.13,27006,14.69,73882.0,-2.29,-3.07,-3.19,0,*55
1491332694.35,27007,14.69,73880.8,-2.29,-3.11,-3.19,0,*53
1491332695.57,27008,14.69,73882.5,-2.29,-3.11,-3.23,0,*55
1491332696.78,27009,14.69,73880.8,-2.29,-3.11,-3.23,0,*54
1491332697.98,27010,14.69,73882.0,-2.27,-3.15,-3.31,0,*55
1491332699.2,27011,14.69,73878.3,-2.29,-3.23,-3.35,0,*5B
1491332700.44,27012,14.69,73884.5,-2.29,-3.31,-3.43,0,*5A
1491332701.67,27013,14.69,73886.0,-2.29,-3.31,-3.35,0,*5A
1491332702.89,27014,14.69,73882.0,-2.29,-3.23,-3.31,0,*5A
1491332704.09,27015,14.69,73880.3,-2.27,-3.19,-3.27,0,*5B
1491332705.31,27016,14.69,73878.0,-2.29,-3.23,-3.35,0,*5C
1491332706.53,27017,14.69,73878.0,-2.29,-3.19,-3.35,0,*54
1491332707.75,27018,14.69,73876.8,-2.29,-3.19,-3.31,0,*5F
1491332708.94,27019,14.63,73876.5,-2.27,-3.07,-3.39,0,*57
1491332710.14,27020,14.69,73884.5,-2.27,-3.07,-3.19,0,*5F
1491332711.34,27021,14.69,73886.8,-2.27,-3.15,-3.27,0,*50
1491332712.56,27022,14.69,73886.0,-2.29,-3.11,-3.23,0,*5D
1491332713.76,27023,14.69,73882.8,-2.27,-3.27,-3.39,0,*5C
1491332715.0,27024,14.69,73880.3,-2.29,-3.35,-3.55,0,*5C
1491332716.2,27025,14.69,73882.3,-2.27,-3.19,-3.31,0,*5F
1491332717.41,27026,14.69,73882.3,-2.29,-3.11,-3.23,0,*59
1491332718.63,27027,14.63,73878.8,-2.29,-3.11,-3.23,0,*58
1491332719.85,27028,14.69,73884.5,-2.29,-3.11,-3.31,0,*54
1491332721.07,27029,14.69,73884.0,-2.29,-3.23,-3.35,0,*50
1491332722.31,27030,14.69,73880.5,-2.29,-3.23,-3.43,0,*59
1491332723.53,27031,14.69,73882.5,-2.29,-3.19,-3.35,0,*50
1491332724.77,27032,14.69,73880.3,-2.29,-3.19,-3.43,0,*52
1491332726.02,27033,14.69,73880.3,-2.29,-3.31,-3.43,0,*59
1491332727.25,27034,14.69,73886.8,-2.29,-3.31,-3.35,0,*5F
1491332728.46,27035,14.69,73884.0,-2.29,-3.11,-3.23,0,*5B
1491332729.65,27036,14.69,73882.8,-2.27,-3.07,-3.19,0,*58
1491332730.87,27037,14.69,73878.3,-2.29,-3.19,-3.31,0,*52
1491332732.12,27038,14.69,73878.5,-2.29,-3.31,-3.43,0,*52
1491332733.34,27039,14.69,73876.5,-2.29,-3.23,-3.31,0,*55
1491332734.58,27040,14.69,73880.3,-2.29,-3.31,-3.43,0,*5D
1491332735.78,27041,14.69,73880.3,-2.27,-3.19,-3.27,0,*5A
1491332736.97,27042,14.69,73882.5,-2.27,-3.19,-3.23,0,*5D
1491332738.19,27043,14.69,73884.0,-2.29,-3.23,-3.23,0,*5B
1491332739.4,27044,14.69,73882.0,-2.29,-3.23,-3.31,0,*5F
1491332740.63,27045,14.69,73882.5,-2.29,-3.31,-3.35,0,*59
1491332741.87,27046,14.69,73882.5,-2.29,-3.23,-3.43,0,*58
1491332743.09,27047,14.69,73884.0,-2.29,-3.23,-3.35,0,*58
1491332744.31,27048,14.69,73880.5,-2.29,-3.31,-3.35,0,*54
1491332745.53,27049,14.69,73878.5,-2.31,-3.23,-3.43,0,*5E
1491332746.76,27050,14.69,73882.5,-2.29,-3.31,-3.35,0,*5D
1491332747.97,27051,14.69,73882.3,-2.29,-3.23,-3.35,0,*5F
1491332749.19,27052,14.69,73878.5,-2.29,-3.23,-3.35,0,*5C
1491332750.42,27053,14.69,73878.0,-2.29,-3.31,-3.35,0,*5E
1491332751.66,27054,14.69,73876.3,-2.29,-3.23,-3.43,0,*5B
1491332752.9,27055,14.69,73876.5,-2.29,-3.23,-3.43,0,*5A
1491332754.12,27056,14.69,73876.8,-2.29,-3.19,-3.35,0,*51
1491332755.34,27057,14.69,73882.8,-2.29,-3.11,-3.23,0,*5F
1491332756.55,27058,14.69,73880.8,-2.29,-3.11,-3.19,0,*59
1491332757.77,27059,14.69,73880.3,-2.29,-3.11,-3.19,0,*58
1491332758.97,27060,14.69,73884.8,-2.31,-3.11,-3.23,0,*52
1491332760.18,27061,14.69,73882.3,-2.29,-3.19,-3.23,0,*52
1491332761.38,27062,14.69,73882.5,-2.27,-3.07,-3.19,0,*59
1491332762.6,27063,14.69,73884.5,-2.29,-3.19,-3.35,0,*57
1491332763.82,27064,14.69,73886.5,-2.29,-3.19,-3.31,0,*54
1491332765.03,27065,14.69,73884.0,-2.29,-3.19,-3.23,0,*56
1491332766.23,27066,14.69,73878.8,-2.27,-3.19,-3.31,0,*58
1491332767.45,27067,14.69,73880.3,-2.29,-3.19,-3.31,0,*57
1491332768.65,27068,14.69,73884.3,-2.31,-3.23,-3.35,0,*5C
1491332769.84,27069,14.69,73884.8,-2.31,-3.23,-3.35,0,*5D
1491332771.04,27070,14.69,73886.5,-2.31,-3.19,-3.23,0,*5B
1491332772.23,27071,14.69,73888.8,-2.31,-3.19,-3.23,0,*5A
1491332773.43,27072,14.69,73886.3,-2.31,-3.23,-3.35,0,*57
1491332774.63,27073,14.69,73886.0,-2.31,-3.23,-3.31,0,*52
1491332775.85,27074,14.69,73886.8,-2.29,-3.11,-3.31,0,*5D
1491332777.04,27075,14.69,73892.0,-2.31,-3.11,-3.31,0,*55
1491332778.24,27076,14.69,73890.3,-2.31,-3.11,-3.23,0,*55
1491332779.44,27077,14.69,73890.3,-2.31,-3.11,-3.19,0,*5D
1491332780.66,27078,14.69,73888.8,-2.29,-3.07,-3.19,0,*5C
1491332781.88,27079,14.69,73888.0,-2.29,-3.11,-3.35,0,*54
1491332783.1,27080,14.69,73886.3,-2.29,-3.19,-3.31,0,*5E
1491332784.32,27081,14.69,73888.5,-2.29,-3.11,-3.35,0,*53
1491332785.54,27082,14.69,73888.8,-2.29,-3.19,-3.35,0,*58
1491332786.76,27083,14.69,73894.0,-2.29,-3.19,-3.31,0,*5D
1491332787.98,27084,14.69,73890.3,-2.29,-3.19,-3.31,0,*5A
1491332789.2,27085,14.69,73894.8,-2.29,-3.11,-3.31,0,*53
1491332790.42,27086,14.69,73890.8,-2.29,-3.19,-3.31,0,*58
1491332791.64,27087,14.69,73884.5,-2.29,-3.11,-3.31,0,*51
1491332792.87,27088,14.69,73888.3,-2.29,-3.31,-3.35,0,*58
1491332794.11,27089,14.69,73888.8,-2.29,-3.23,-3.43,0,*5B
1491332795.35,27090,14.69,73886.0,-2.29,-3.31,-3.43,0,*50
1491332796.55,27091,14.69,73884.0,-2.31,-3.11,-3.35,0,*5B
1491332797.75,27092,14.69,73884.3,-2.31,-3.11,-3.31,0,*5C
1491332798.95,27093,14.69,73882.5,-2.31,-3.19,-3.35,0,*51
1491332800.17,27094,14.69,73882.0,-2.29,-3.19,-3.31,0,*5B
1491332801.37,27095,14.69,73884.3,-2.31,-3.11,-3.31,0,*5B
1491332802.59,27096,14.69,73884.8,-2.29,-3.11,-3.23,0,*52
1491332803.8,27097,14.69,73884.8,-2.29,-3.11,-3.23,0,*53
1491332805.02,27098,14.69,73886.5,-2.29,-3.11,-3.23,0,*5C
1491332806.24,27099,14.69,73890.0,-2.29,-3.19,-3.19,0,*5C
1491332807.46,27100,14.69,73890.3,-2.29,-3.19,-3.31,0,*57
1491332808.68,27101,14.69,73888.3,-2.29,-3.19,-3.31,0,*56
1491332809.89,27102,14.69,73892.5,-2.29,-3.11,-3.23,0,*5E
1491332811.09,27103,14.69,73894.0,-2.27,-3.11,-3.23,0,*51
1491332812.31,27104,14.69,73888.0,-2.29,-3.11,-3.11,0,*59
1491332813.5,27105,14.69,73892.0,-2.27,-3.15,-3.19,0,*5A
1491332814.72,27106,14.69,73886.8,-2.29,-2.91,-3.03,0,*51
1491332815.94,27107,14.69,73888.0,-2.27,-2.67,-2.79,0,*5B
1491332817.17,27108,14.69,73886.0,-2.29,-2.95,-3.07,0,*5F
1491332818.39,27109,14.69,73886.3,-2.29,-3.07,-3.19,0,*5B
1491332819.61,27110,14.69,73886.3,-2.29,-3.07,-3.19,0,*53
1491332820.8,27111,14.69,73886.0,-2.27,-3.03,-3.07,0,*57
1491332822.0,27112,14.69,73886.8,-2.27,-3.03,-3.07,0,*54
1491332823.2,27113,14.69,73886.3,-2.27,-3.03,-3.15,0,*56
1491332824.4,27114,14.69,73884.8,-2.27,-3.03,-3.07,0,*52
1491332825.59,27115,14.69,73886.5,-2.27,-2.99,-3.07,0,*51
1491332826.79,27116,14.69,73888.8,-2.27,-2.91,-3.07,0,*5A
1491332827.99,27117,14.69,73886.8,-2.27,-2.95,-3.03,0,*5B
1491332829.19,27118,14.69,73886.0,-2.27,-2.91,-3.03,0,*50
1491332830.39,27119,14.69,73884.0,-2.27,-2.87,-2.99,0,*54
1491332831.59,27120,14.69,73884.5,-2.27,-2.87,-2.99,0,*5E
1491332832.79,27121,14.69,73880.0,-2.27,-2.91,-3.03,0,*5A
1491332833.98,27122,14.69,73882.0,-2.27,-2.99,-3.03,0,*51
1491332835.18,27123,14.69,73882.3,-2.23,-2.91,-3.03,0,*5C
1491332836.38,27124,14.69,73880.3,-2.23,-2.87,-3.03,0,*5C
1491332837.58,27125,14.69,73884.5,-2.23,-2.79,-2.99,0,*5E
1491332838.78,27126,14.69,73886.3,-2.23,-2.79,-2.99,0,*5D
1491332839.98,27127,14.69,73884.3,-2.23,-2.79,-2.99,0,*5C
1491332841.18,27128,14.69,73886.8,-2.23,-2.91,-3.03,0,*57
1491332842.4,27129,14.69,73886.0,-2.21,-2.87,-2.95,0,*5D
1491332843.6,27130,14.69,73884.8,-2.23,-2.91,-3.03,0,*5E
1491332844.83,27131,14.69,73884.5,-2.21,-2.95,-3.03,0,*59
1491332846.03,27132,14.69,73884.0,-2.23,-3.03,-3.07,0,*52
1491332847.23,27133,14.69,73888.8,-2.23,-2.99,-3.07,0,*51
1491332848.42,27134,14.69,73888.5,-2.23,-3.03,-3.07,0,*54
1491332849.62,27135,14.69,73888.5,-2.23,-2.99,-3.07,0,*57
1491332850.84,27136,14.69,73888.8,-2.21,-2.99,-3.11,0,*51
1491332852.07,27137,14.69,73888.8,-2.21,-2.99,-3.03,0,*53
1491332853.29,27138,14.69,73880.3,-2.21,-2.99,-3.11,0,*5F
1491332854.48,27139,14.69,73884.5,-2.23,-3.07,-3.19,0,*52
1491332855.68,27140,14.69,73886.0,-2.23,-3.07,-3.27,0,*51
1491332856.9,27141,14.69,73886.0,-2.21,-2.99,-3.11,0,*51
1491332858.1,27142,14.69,73890.3,-2.23,-2.99,-3.07,0,*57
1491332859.3,27143,14.69,73890.5,-2.23,-3.03,-3.07,0,*54
1491332860.5,27144,14.69,73890.3,-2.23,-3.03,-3.07,0,*53
1491332861.72,27145,14.69,73888.0,-2.21,-2.99,-3.11,0,*55
1491332862.92,27146,14.69,73888.8,-2.23,-2.79,-3.03,0,*59
1491332864.14,27147,14.69,73890.5,-2.19,-2.63,-2.83,0,*53
1491332865.39,27148,14.69,73890.8,-2.21,-2.71,-2.87,0,*50
1491332866.62,27149,14.69,73888.0,-2.23,-2.75,-2.99,0,*58
1491332867.81,27150,14.69,73892.0,-2.19,-2.87,-2.99,0,*54
1491332869.01,27151,14.69,73890.0,-2.19,-2.35,-1.71,0,*59
1491332870.2,27152,14.69,73888.5,-2.19,-2.27,-1.75,0,*5D
1491332871.39,27153,14.69,73886.5,-2.19,-2.27,-1.75,0,*5C
1491332872.66,27154,14.69,73890.3,-2.21,-2.51,-1.83,0,*58
1491332873.91,27155,14.69,73886.8,-2.19,-2.47,-1.99,0,*5E
1491332875.15,27156,14.69,73890.8,-2.17,-2.43,-1.95,0,*5B
1491332876.39,27157,14.69,73884.8,-2.19,-2.51,-2.07,0,*5F
1491332877.64,27158,14.69,73886.8,-2.19,-2.51,-2.07,0,*50
1491332878.88,27159,14.69,73890.5,-2.19,-2.59,-2.11,0,*5E
1491332880.13,27160,14.69,73890.8,-2.19,-2.63,-2.11,0,*5D
1491332881.34,27161,14.69,73884.3,-2.19,-2.59,-2.27,0,*50
1491332882.59,27162,14.69,73890.3,-2.17,-2.55,-2.23,0,*55
1491332883.8,27163,14.69,73888.8,-2.19,-2.83,-2.59,0,*5C
1491332885.0,27164,14.69,73886.5,-2.19,-2.99,-2.99,0,*5C
1491332886.19,27165,14.69,73886.8,-2.19,-3.07,-2.99,0,*5B
1491332887.39,27166,14.69,73884.5,-2.19,-3.03,-3.03,0,*5E
1491332888.58,27167,14.69,73886.8,-2.19,-2.99,-3.07,0,*59
1491332889.77,27168,14.69,73886.3,-2.19,-3.03,-3.03,0,*50
1491332890.96,27169,14.69,73880.3,-2.19,-3.03,-3.11,0,*52
1491332892.16,27170,14.69,73888.0,-2.19,-2.99,-2.99,0,*59
1491332893.38,27171,14.69,73884.0,-2.17,-2.91,-2.95,0,*52
1491332894.57,27172,14.69,73890.8,-2.19,-2.99,-2.99,0,*5B
1491332895.8,27173,14.69,73890.0,-2.17,-1.71,-1.67,0,*53
1491332897.02,27174,14.69,73884.8,-2.13,0.83,0.43,0,*5B
1491332898.28,27175,14.69,73890.8,-2.11,-1.33,-1.39,0,*5E
1491332899.47,27176,14.69,73888.8,-2.09,-2.15,-2.15,0,*5E
1491332900.66,27177,14.69,73888.8,-2.09,-2.39,-2.39,0,*5F
1491332901.93,27178,14.69,73888.8,-2.07,-2.67,-2.59,0,*53